Regional Weather Roundup
Issued by NWS Charleston, SC

Current Version | Previous Version | Graphics & Text | Print | Product List | Glossary On
Versions: 1 2 3 4 5 6 7 8 9 10 11 12 13 14 15 16 17 18 19 20 21 22 23 24 25 26 27 28 29 30 31 32 33 34 35 36 37 38 39 40 41 42 43 44 45 46 47 48 49 50
000 ASUS42 KCHS 091412 RWRCHS REGIONAL WEATHER ROUNDUP NATIONAL WEATHER SERVICE CHARLESTON SC 900 AM EST FRI DEC 09 2016 NOTE: "FAIR" INDICATES FEW OR NO CLOUDS BELOW 12,000 FEET WITH NO SIGNIFICANT WEATHER AND/OR OBSTRUCTIONS TO VISIBILITY. NOT ALL STATIONS ARE QUALITY CONTROLLED. USE DATA WITH CAUTION... ESPECIALLY DEWPOINT OBSERVATIONS. SCZ027-030-031-034>040-042>050-091500- ...SOUTHEAST SOUTH CAROLINA... CITY SKY/WX TMP DP RH WIND PRES REMARKS N CHARLESTON MOSUNNY 43 19 38 N15 30.41R WATERFRONT PRK N/A 42 28 57 N12G21 30.38R MOUNT PLEASANT NOT AVBL JOHNS ISLAND NOT AVBL PINOPOLIS N/A 39 27 60 N15 30.33R WCI 31 MONCKS CORNER FAIR 39 18 41 NE8G16 30.42R WCI 34 SUMMERVILLE NOT AVBL BEAUFORT MCAS SUNNY 43 25 49 N9 30.42R BEAUFORT ARPT FAIR 43 27 52 N10 30.41R HILTON HEAD IS NOT AVBL WALTERBORO SUNNY 41 27 56 N7 30.44R ALLENDALE FAIR 39 25 56 N8 30.43R WCI 34 ...SOUTHERN MIDLANDS AND PEE DEE... CITY SKY/WX TMP DP RH WIND PRES REMARKS GEORGETOWN NOT AVBL KINGSTREE FAIR 36 21 55 N5 30.42R WCI 32 ORANGEBURG SUNNY 38 18 44 N8 30.43R WCI 32 BARNWELL NOT AVBL AIKEN FAIR 34 19 55 N7 30.45R WCI 28 MANNING FAIR 36 23 60 N8 30.43R WCI 29 COLUMBIA SUNNY 39 16 39 N6 30.43R WCI 35 SUMTER SUNNY 37 17 45 N12 30.41R WCI 29 FLORENCE SUNNY 37 20 50 N10 30.43R WCI 30 MYRTLE BEACH SUNNY 39 19 45 N17 30.42R WCI 30 N MYRTLE BEACH SUNNY 38 22 52 N12G18 30.39R WCI 30 $$ GAZ063-065-086>088-099>101-113>116-118-119-134>141-150-091500- ...SOUTHEAST GEORGIA... CITY SKY/WX TMP DP RH WIND PRES REMARKS SAVANNAH ARPT MOSUNNY 42 26 53 N9 30.43R HUNTER AAF SUNNY 43 29 59 N10 30.39R FORT STEWART SUNNY 42 25 49 N9 30.41R STATESBORO SUNNY 39 28 64 N9 30.45R WCI 33 SYLVANIA SUNNY N/A N/A N/A N6 30.45R CLAXTON FAIR 41 28 59 NW5 30.45R ...CSRA...CENTRAL AND FAR SOUTHEAST GEORGIA... CITY SKY/WX TMP DP RH WIND PRES REMARKS THOMSON SUNNY 34 26 71 CALM 30.49R AUGUSTA-BUSH SUNNY 39 25 57 N6 30.44R WCI 35 AUGUSTA-DANIEL SUNNY 37 22 54 NW7 30.44R WCI 32 SWAINSBORO FAIR 36 23 60 NW7 30.46R WCI 30 VIDALIA MOSUNNY 39 28 65 N13 30.45R WCI 32 EASTMAN FAIR 37 12 36 N6 30.49R WCI 32 HAZLEHURST FAIR 39 24 53 N8 30.44R WCI 34 ALMA SUNNY 40 23 50 N12G17 30.44R WCI 33 WAYCROSS MOSUNNY 43 29 57 N10 30.43R JESUP FAIR 41 30 65 N6 30.43R BAXLEY FAIR 39 28 65 N10 30.44R WCI 32 BRUNSWICK MOSUNNY 43 32 65 N7 30.41S SAINT SIMONS MOSUNNY 43 26 51 N13 30.39R $$ SCZ027-028-034-036>038-045-046-048>050-GAZ119-141-091500- ...LAKE AND SUPPLEMENTAL COASTAL OBSERVATIONS... STATION/POSITION TIME TEMP WIND PRES WAVE SWELL AIR SEA DIR/SP/G HT/PER HT/PER/DIR (UTC) (F) (DEG/KT/KT) (MB) (FT/S) (FT/S/D) WINYAH BAY 1245 36 360/ 3 1028.0 LAKE MURRAY 1320 35 330/ 3/ 6 1029.5 ACE BASIN NERRS 1245 38 350/ 3 1029.0 FORT PULASKI 1348 42 61 10/ 10/ 12 1029.8R SAPELO ISLAND 1300 42 340/ 9 1029.0 $$ ANZ835-935-AMZ111-154-330-350-352-354-370-450-454-472-091500- ...C-MAN AND BUOY OBSERVATIONS... STATION/POSITION TIME TEMP WIND PRES WAVE SWELL AIR SEA DIR/SP/G HT/PER HT/PER/DIR (UTC) (F) (DEG/KT/KT) (MB) (FT/S) (FT/S/D) BUOY 41004 1350 50 73 10/ 19/ 25 1027.2R 6/ 6 BUOY 41008 1350 50 63 360/ 17/ 23 1028.3R 4/ 5 2/ 60/11 FOLLY BEACH CMAN 1300 43 360/ 11/ 14 1029.0R CAPERS NEARSHORE NOT AVBL FRIPP NEARSHORE 1308 46 61 10/ 16/ 21 1028.8R STATION/POSITION TIME TEMP WIND PRES WAVE SWELL AIR SEA DIR/SP/G HT/PER HT/PER/DIR (UTC) (F) (DEG/KT/KT) (MB) (FT/S) (FT/S/D) 5E ST. MARYS GA 1400 64 N/A 4/ 5 FRYING PAN BUOY 1350 46 73 10/ 19/ 27 1027.5R 5/ 6 BUOY 41025 1350 44 75 350/ 17/ 23 1025.7R 5/ 7 2/ 60/ 9 CAPE LOOKOUT NC 1300 38 340/ 17/ 20 1026.5R BUOY 41002 1350 62 74 360/ 17/ 23 1022.1R 7/ 7 3/ 30/11 BUOY 41010 NOT AVBL ST AUGUSTINE FL 1400 48 65 330/ 17/ 21 1028.7R $$

USA.gov is the U.S. government's official web portal to all federal, state and local government web resources and services.